Regional Weather Roundup
Issued by NWS Upton, NY

Current Version | Previous Version | Text Only | Print | Product List | Glossary Off
Versions: 1 2 3 4 5 6 7 8 9 10 11 12 13 14 15 16 17 18 19 20 21 22 23 24 25 26 27 28 29 30 31 32 33 34 35 36 37 38 39 40 41 42 43 44 45 46 47 48 49 50
000 ASUS41 KOKX 300708 RWROKX REGIONAL WEATHER ROUNDUP NATIONAL WEATHER SERVICE NEW YORK NY 300 AM EDT TUE JUN 30 2015 NOTE: "FAIR" INDICATES FEW OR NO CLOUDS BELOW 12,000 FEET WITH NO SIGNIFICANT WEATHER AND/OR OBSTRUCTIONS TO VISIBILITY. NYZ071-072-176-178-NJZ106-104-300800- NEW YORK CITY METRO AREA CITY SKY/WX TMP DP RH WIND PRES REMARKS CENTRAL PARK CLEAR 71 56 58 VRB6 29.98S LAGUARDIA APRT PTCLDY 71 57 61 S7 29.95S KENNEDY INTL PTCLDY 68 61 78 SW5 29.97S NEWARK/LIBERTY PTCLDY 67 58 72 SW5 29.95F BRNX BOT. GARD N/A 66 57 72 N1 29.95F TETERBORO CLEAR 65 57 75 NW5 29.95R $$ NYZ177-179-078>081-300800- LONG ISLAND NEW YORK CITY SKY/WX TMP DP RH WIND PRES REMARKS FARMINGDALE CLEAR 67 63 87 SW6 29.97R ISLIP CLEAR 67 63 87 S7 29.95S SHIRLEY CLEAR 67 62 84 S5 29.97S WESTHAMPTON CLEAR 66 65 96 SW6 29.98S MONTAUK POINT N/A 68 61 78 SW3 29.99R $$ NYZ052-065-067-300800- HUDSON VALLEY CITY SKY/WX TMP DP RH WIND PRES REMARKS WHITE PLAINS MOCLDY 65 60 84 NW3 29.96S NEWBURGH CLOUDY 64 61 88 CALM 29.97R MONTGOMERY CLOUDY 61 61 100 SW3 29.96R POUGHKEEPSIE CLOUDY 62 59 90 CALM 29.94S ALBANY MOCLDY 60 56 86 CALM 29.96S $$ NJZ001-105-106-008-010-013-015-019>022-104-300800- NEW JERSEY CITY SKY/WX TMP DP RH WIND PRES REMARKS NEWARK/LIBERTY PTCLDY 67 58 72 SW5 29.95F TETERBORO CLEAR 65 57 75 NW5 29.95R CALDWELL CLEAR 62 57 83 CALM 29.97S MORRISTOWN CLEAR 59 55 88 CALM 29.97R SOMERVILLE CLEAR 58 56 93 CALM 29.94F SUSSEX CLOUDY 63 61 93 CALM 29.96S ANDOVER N/A 58 57 97 CALM 29.97S TRENTON CLOUDY 64 58 80 CALM 29.95F MILLVILLE CLEAR 62 61 96 CALM 29.96F ATLANTIC CITY CLEAR 62 57 83 CALM 29.97F WRIGHTSTOWN CLEAR 60 60 98 SE2 29.94F TOMS RIVER CLEAR 57 55 94 CALM 29.97F BELMAR CLEAR 64 57 77 SW3 29.97S $$ PAZ047>061-062-071-300800- EASTERN PENNSYLVANIA CITY SKY/WX TMP DP RH WIND PRES REMARKS PHILADELPHIA CLEAR 69 59 70 S3 29.96S ALLENTOWN CLOUDY 62 59 90 CALM 29.95S SCRANTON CLOUDY 66 59 78 E3 29.94F $$ CTZ002-004>006-009-010-012-RIZ004-006-007-MAZ004-011-015-300800- SOUTHERN NEW ENGLAND IN CT CITY SKY/WX TMP DP RH WIND PRES REMARKS BRADLEY INTL PTCLDY 60 57 89 CALM 29.96R HARTFORD PTCLDY 62 59 90 SE8 29.96R DANBURY CLOUDY 62 57 83 CALM 29.97S WTRBRY/OXFORD CLOUDY 63 55 77 CALM 29.98S BRIDGEPORT MOCLDY 68 61 78 CALM 29.96S MERIDEN PTCLDY 60 57 89 CALM 29.96S NEW HAVEN PTCLDY 61 59 93 CALM 29.96S CHESTER DRIZZLE 63 61 94 CALM 29.98S GROTON PTCLDY 61 58 90 CALM 29.97R WILLIMANTIC CLOUDY 57 55 93 CALM 29.98R FOG IN RI CITY SKY/WX TMP DP RH WIND PRES REMARKS PROVIDENCE PTCLDY 62 59 90 W6 29.97R BLOCK ISLAND PTCLDY 64 61 88 SW9 29.98S WESTERLY CLEAR 60 57 89 CALM 29.97S IN MA CITY SKY/WX TMP DP RH WIND PRES REMARKS BOSTON CLEAR 63 60 90 SW7 29.96R WORCESTER CLEAR 60 55 83 W7 29.98R WESTFIELD CLEAR 56 54 93 CALM 29.96S PROVINCETOWN CLEAR 59 3 10 SW8 29.97R NANTUCKET CLEAR 64 61 90 SW9 29.99R $$ ANZ330-335-338-340-345-350-353-355-300800- COASTAL MARINE OBSERVATIONS STATION/POSITION TIME SKY/WX TEMP WIND PRES VSBY WAVE AIR SEA DIR/SP/G HT/PER (UTC) (F) (DEG/KT/KT) (MB) (MI) (FT/S) NY HARB ENTRANCE 0650 69 68 210/ 10/ 10 1014.2 3/ 9 4S FIRE IS 0603 66 N/A 3/ 8 20S FIRE ISLAND 0650 67 65 200/ 8/ 10 1014.7 3/ 8 GREAT SOUTH BAY 0630 69 72 230/ 10/ 14 N/A 23SW MTP 0650 65 64 230/ 6/ 8 1014.9 4/ 8 HUDSON CANYON NOT AVBL KINGS POINT 0600 70 65 190/ 5/ 8 1013.7 CENTRAL LI SOUND NOT AVBL EASTERN LI SOUND 0600 65 290/ 4/ 4 N/A ROBBINS REEF 0600 71 210/ 8/ 9 1013.3 $$ >>>>>>>>>>>>>>>>>>>>>>>>>>>> KEY <<<<<<<<<<<<<<<<<<<<<<<<<<< > < > SKY/WX - SKY CONDITION/PRESENT WEATHER < > TMP - TEMPERATURE IN FAHRENHEIT < > DP - DEWPOINT IN FAHRENHEIT < > RH - RELATIVE HUMIDITY IN PERCENT < > WIND - DIRECTION AND SPEED IN MPH < > PRES - MEAN SEA LEVEL PRESSURE IN INCHES OF HG < > WCI - WIND CHILL INDEX < > VSB - VISIBILITY IN MILES < > HX - HEAT INDEX < > TC - TEMPERATURE IN CELSIUS < > VRB - VARIABLE WIND DIRECTION < > < >>>>>>>>>>>>>>>>>>>>>>>>>>>> KEY <<<<<<<<<<<<<<<<<<<<<<<<<<<

USA.gov is the U.S. government's official web portal to all federal, state and local government web resources and services.